| time (UTC) | temp F | wind direction | speed MPH | gust MPH | rain 1hr in | rain 24hr in | rain mn in | humidity % | barometer mb |
| 20260506051351 | 59 | 13 | 0.0 | 0.0 | 0.00 | 0.00 | 0.00 | ||
| 20260506051025 | 59 | 13 | 0.0 | 0.0 | 0.00 | 0.00 | 0.00 | ||
| 20260506050950 | 59 | 13 | 0.0 | 0.0 | 0.00 | 0.00 | 0.00 | ||
| 20260506050448 | 59 | 13 | 0.0 | 0.0 | 0.00 | 0.00 | 0.00 | ||
| 20260506044949 | 59 | 13 | 0.0 | 0.0 | 0.00 | 0.00 | 0.00 | ||
| 20260506044541 | 59 | 13 | 0.0 | 0.0 | 0.00 | 0.00 | 0.00 | ||
| 20260506044447 | 59 | 13 | 0.0 | 0.0 | 0.00 | 0.00 | 0.00 | ||
| 20260506043948 | 60 | 13 | 0.0 | 0.0 | 0.00 | 0.00 | 0.00 | ||
| 20260506043446 | 60 | 13 | 0.0 | 0.0 | 0.00 | 0.00 | 0.00 | ||
| 20260506042948 | 59 | 13 | 0.0 | 0.0 | 0.00 | 0.00 | 0.00 | ||
| 20260506042446 | 59 | 13 | 0.0 | 0.0 | 0.00 | 0.00 | 0.00 | ||
| 20260506041947 | 60 | 13 | 0.0 | 0.0 | 0.00 | 0.00 | 0.00 | ||
| 20260506041445 | 60 | 13 | 0.0 | 0.0 | 0.00 | 0.00 | 0.00 | ||
| 20260506040947 | 60 | 13 | 0.0 | 0.0 | 0.00 | 0.00 | 0.00 | ||
| 20260506040445 | 60 | 13 | 0.0 | 0.0 | 0.00 | 0.00 | 0.00 | ||
| 20260506035946 | 60 | 13 | 0.0 | 0.0 | 0.00 | 0.00 | 0.00 | ||
| 20260506035444 | 61 | 13 | 0.0 | 0.0 | 0.00 | 0.00 | 0.00 | ||
| 20260506034945 | 60 | 13 | 0.0 | 0.0 | 0.00 | 0.00 | 0.00 | ||
| 20260506034515 | 61 | 13 | 0.0 | 0.0 | 0.00 | 0.00 | 0.00 | ||
| 20260506034443 | 61 | 13 | 0.0 | 0.0 | 0.00 | 0.00 | 0.00 | ||
| 20260506033944 | 61 | 13 | 0.0 | 0.0 | 0.00 | 0.00 | 0.00 | ||
| 20260506033443 | 61 | 13 | 0.0 | 0.0 | 0.00 | 0.00 | 0.00 | ||
| 20260506032944 | 60 | 13 | 0.0 | 0.0 | 0.00 | 0.00 | 0.00 | ||
| 20260506032442 | 61 | 13 | 0.0 | 0.0 | 0.00 | 0.00 | 0.00 | ||
| 20260506031943 | 61 | 13 | 0.0 | 0.0 | 0.00 | 0.00 | 0.00 | ||
| 20260506031442 | 61 | 13 | 0.0 | 0.0 | 0.00 | 0.00 | 0.00 | ||
| 20260506030943 | 61 | 13 | 0.0 | 0.0 | 0.00 | 0.00 | 0.00 | ||
| 20260506030441 | 62 | 13 | 0.0 | 0.0 | 0.00 | 0.00 | 0.00 | ||
| 20260506025942 | 62 | 13 | 0.0 | 0.0 | 0.00 | 0.00 | 0.00 | ||
| 20260506025440 | 62 | 13 | 0.0 | 0.0 | 0.00 | 0.00 | 0.00 | ||
| 20260506024941 | 62 | 13 | 0.0 | 0.0 | 0.00 | 0.00 | 0.00 | ||
| 20260506024439 | 63 | 13 | 0.0 | 0.0 | 0.00 | 0.00 | 0.00 | ||
| 20260506023941 | 63 | 13 | 0.0 | 0.0 | 0.00 | 0.00 | 0.00 | ||
| 20260506023439 | 63 | 13 | 0.0 | 0.0 | 0.00 | 0.00 | 0.00 | ||
| 20260506022940 | 63 | 13 | 0.0 | 0.0 | 0.00 | 0.00 | 0.00 | ||
| 20260506022438 | 64 | 13 | 0.0 | 0.0 | 0.00 | 0.00 | 0.00 | ||
| 20260506021939 | 64 | 13 | 0.0 | 0.0 | 0.00 | 0.00 | 0.00 | ||
| 20260506021437 | 64 | 13 | 0.0 | 0.0 | 0.00 | 0.00 | 0.00 | ||
| 20260506020938 | 64 | 13 | 0.0 | 0.0 | 0.00 | 0.00 | 0.00 | ||
| 20260506020436 | 64 | 13 | 0.0 | 0.0 | 0.00 | 0.00 | 0.00 | ||
| 20260506015433 | 65 | 13 | 0.0 | 0.0 | 0.00 | 0.00 | 0.00 | ||
| 20260506014934 | 65 | 13 | 0.0 | 0.0 | 0.00 | 0.00 | 0.00 | ||
| 20260506014432 | 65 | 13 | 0.0 | 0.0 | 0.00 | 0.00 | 0.00 | ||
| 20260506013934 | 65 | 13 | 0.0 | 0.0 | 0.00 | 0.00 | 0.00 | ||
| 20260506012933 | 66 | 13 | 0.0 | 0.0 | 0.00 | 0.00 | 0.00 | ||
| 20260506012431 | 66 | 13 | 0.0 | 0.0 | 0.00 | 0.00 | 0.00 | ||
| 20260506012118 | 66 | 13 | 0.0 | 0.0 | 0.00 | 0.00 | 0.00 | ||
| 20260506011932 | 66 | 13 | 0.0 | 0.0 | 0.00 | 0.00 | 0.00 | ||
| 20260506011430 | 66 | 13 | 0.0 | 0.0 | 0.00 | 0.00 | 0.00 | ||
| 20260506010931 | 67 | 13 | 0.0 | 0.0 | 0.00 | 0.00 | 0.00 | ||
| 20260506010525 | 67 | 13 | 0.0 | 0.0 | 0.00 | 0.00 | 0.00 | ||
| 20260506010430 | 67 | 13 | 0.0 | 0.0 | 0.00 | 0.00 | 0.00 | ||
| 20260506005931 | 67 | 13 | 0.0 | 0.0 | 0.00 | 0.00 | 0.00 | ||
| 20260506005538 | 68 | 13 | 0.0 | 0.0 | 0.00 | 0.00 | 0.00 | ||
| 20260506005429 | 68 | 13 | 0.0 | 0.0 | 0.00 | 0.00 | 0.00 | ||
| 20260506004930 | 68 | 13 | 0.0 | 0.0 | 0.00 | 0.00 | 0.00 | ||
| 20260506003930 | 68 | 13 | 0.0 | 0.0 | 0.00 | 0.00 | 0.00 | ||
| 20260506003428 | 68 | 13 | 0.0 | 0.0 | 0.00 | 0.00 | 0.00 | ||
| 20260506002929 | 69 | 13 | 0.0 | 0.0 | 0.00 | 0.00 | 0.00 | ||
| 20260506002427 | 69 | 13 | 0.0 | 0.0 | 0.00 | 0.00 | 0.00 | ||
| 20260506001928 | 69 | 13 | 0.0 | 0.0 | 0.00 | 0.00 | 0.00 | ||
| 20260506001427 | 70 | 13 | 0.0 | 0.0 | 0.00 | 0.00 | 0.00 | ||
| 20260506000928 | 70 | 42 | 0.0 | 0.0 | 0.00 | 0.00 | 0.00 | ||
| 20260506000426 | 70 | 226 | 0.0 | 0.0 | 0.00 | 0.00 | 0.00 | ||
| 20260505235927 | 70 | 187 | 3.0 | 0.0 | 0.00 | 0.00 | 0.00 | ||
| 20260505235558 | 71 | 343 | 0.0 | 0.0 | 0.00 | 0.00 | 0.00 | ||
| 20260505235425 | 71 | 343 | 0.0 | 0.0 | 0.00 | 0.00 | 0.00 | ||
| 20260505234927 | 70 | 343 | 2.0 | 0.0 | 0.00 | 0.00 | 0.00 | ||
| 20260505234425 | 71 | 13 | 0.0 | 2.0 | 0.00 | 0.00 | 0.00 | ||
| 20260505234128 | 71 | 122 | 2.0 | 4.0 | 0.00 | 0.00 | 0.00 | ||
| 20260505233926 | 71 | 122 | 2.0 | 4.0 | 0.00 | 0.00 | 0.00 | ||
| 20260505233424 | 71 | 314 | 3.0 | 3.0 | 0.00 | 0.00 | 0.00 | ||
| 20260505232424 | 71 | 283 | 1.0 | 0.0 | 0.00 | 0.00 | 0.00 | ||
| 20260505224421 | 73 | 11 | 1.0 | 3.0 | 0.00 | 0.00 | 0.00 | ||
| 20260505223420 | 73 | 89 | 1.0 | 4.0 | 0.00 | 0.00 | 0.00 | ||
| 20260505221921 | 73 | 226 | 3.0 | 0.0 | 0.00 | 0.00 | 0.00 | ||
| 20260505220419 | 74 | 309 | 1.0 | 3.0 | 0.00 | 0.00 | 0.00 | ||
| 20260505213917 | 74 | 167 | 3.0 | 3.0 | 0.00 | 0.00 | 0.00 | ||
| 20260505212415 | 76 | 143 | 3.0 | 1.0 | 0.00 | 0.00 | 0.00 | ||
| 20260505202913 | 76 | 118 | 7.0 | 5.0 | 0.00 | 0.00 | 0.00 | ||
| 20260505201913 | 77 | 301 | 3.0 | 8.0 | 0.00 | 0.00 | 0.00 | ||
| 20260505201411 | 78 | 98 | 4.0 | 3.0 | 0.00 | 0.00 | 0.00 | ||
| 20260505152855 | 77 | 0 | 1.0 | 2.0 | 0.00 | 0.00 | 0.00 | ||
| 20260505152353 | 75 | 276 | 1.0 | 4.0 | 0.00 | 0.00 | 0.00 | ||
| 20260505140349 | 70 | 89 | 2.0 | 2.0 | 0.00 | 0.00 | 0.00 | ||
| 20260505125034 | 65 | 321 | 1.0 | 0.0 | 0.00 | 0.00 | 0.00 | ||
| 20260505124844 | 65 | 321 | 1.0 | 0.0 | 0.00 | 0.00 | 0.00 | ||
| 20260505124342 | 64 | 269 | 0.0 | 0.0 | 0.00 | 0.00 | 0.00 | ||
| 20260505123933 | 64 | 7 | 0.0 | 0.0 | 0.00 | 0.00 | 0.00 | ||
| 20260505123844 | 64 | 7 | 0.0 | 0.0 | 0.00 | 0.00 | 0.00 | ||
| 20260505123342 | 64 | 7 | 0.0 | 0.0 | 0.00 | 0.00 | 0.00 | ||
| 20260505122341 | 63 | 7 | 0.0 | 0.0 | 0.00 | 0.00 | 0.00 | ||
| 20260505121842 | 63 | 7 | 0.0 | 0.0 | 0.00 | 0.00 | 0.00 | ||
| 20260505120842 | 60 | 7 | 0.0 | 0.0 | 0.00 | 0.00 | 0.00 | ||
| 20260505120340 | 59 | 7 | 0.0 | 0.0 | 0.00 | 0.00 | 0.00 | ||
| 20260505115841 | 57 | 7 | 0.0 | 0.0 | 0.00 | 0.00 | 0.00 | ||
| 20260505115339 | 56 | 7 | 0.0 | 0.0 | 0.00 | 0.00 | 0.00 | ||
| 20260505114840 | 56 | 7 | 0.0 | 0.0 | 0.00 | 0.00 | 0.00 | ||
| 20260505114338 | 56 | 7 | 0.0 | 0.0 | 0.00 | 0.00 | 0.00 | ||
| 20260505113337 | 55 | 7 | 0.0 | 0.0 | 0.00 | 0.00 | 0.00 | ||
| 20260505112838 | 55 | 7 | 0.0 | 0.0 | 0.00 | 0.00 | 0.00 | ||
| 20260505112337 | 54 | 7 | 0.0 | 0.0 | 0.00 | 0.00 | 0.00 | ||
| 20260505111838 | 54 | 7 | 0.0 | 0.0 | 0.00 | 0.00 | 0.00 | ||
| 20260505111408 | 54 | 7 | 0.0 | 0.0 | 0.00 | 0.00 | 0.00 | ||
| 20260505111336 | 54 | 7 | 0.0 | 0.0 | 0.00 | 0.00 | 0.00 | ||
| 20260505111012 | 54 | 7 | 0.0 | 0.0 | 0.00 | 0.00 | 0.00 | ||
| 20260505110836 | 54 | 7 | 0.0 | 0.0 | 0.00 | 0.00 | 0.00 | ||
| 20260505110335 | 54 | 7 | 0.0 | 0.0 | 0.00 | 0.00 | 0.00 | ||
| 20260505101834 | 54 | 7 | 0.0 | 0.0 | 0.00 | 0.00 | 0.00 | ||
| 20260505101333 | 53 | 7 | 0.0 | 0.0 | 0.00 | 0.00 | 0.00 | ||
| 20260505101016 | 54 | 7 | 0.0 | 0.0 | 0.00 | 0.00 | 0.00 | ||
| 20260505100834 | 54 | 7 | 0.0 | 0.0 | 0.00 | 0.00 | 0.00 | ||
| 20260505100332 | 53 | 7 | 0.0 | 0.0 | 0.00 | 0.00 | 0.00 | ||
| 20260505095833 | 53 | 7 | 0.0 | 0.0 | 0.00 | 0.00 | 0.00 | ||
| 20260505095446 | 53 | 7 | 0.0 | 0.0 | 0.00 | 0.00 | 0.00 | ||
| 20260505095332 | 53 | 7 | 0.0 | 0.0 | 0.00 | 0.00 | 0.00 | ||
| 20260505094933 | 53 | 7 | 0.0 | 0.0 | 0.00 | 0.00 | 0.00 | ||
| 20260505094833 | 53 | 7 | 0.0 | 0.0 | 0.00 | 0.00 | 0.00 | ||
| 20260505094331 | 53 | 7 | 0.0 | 0.0 | 0.00 | 0.00 | 0.00 | ||
| 20260505093933 | 53 | 7 | 0.0 | 0.0 | 0.00 | 0.00 | 0.00 | ||
| 20260505093833 | 53 | 7 | 0.0 | 0.0 | 0.00 | 0.00 | 0.00 | ||
| 20260505093331 | 54 | 7 | 0.0 | 0.0 | 0.00 | 0.00 | 0.00 | ||
| 20260505092832 | 53 | 7 | 0.0 | 0.0 | 0.00 | 0.00 | 0.00 | ||
| 20260505092331 | 54 | 7 | 0.0 | 0.0 | 0.00 | 0.00 | 0.00 | ||
| 20260505091833 | 54 | 7 | 0.0 | 0.0 | 0.00 | 0.00 | 0.00 | ||
| 20260505091330 | 53 | 7 | 0.0 | 0.0 | 0.00 | 0.00 | 0.00 | ||
| 20260505090832 | 54 | 7 | 0.0 | 0.0 | 0.00 | 0.00 | 0.00 | ||
| 20260505090417 | 54 | 7 | 0.0 | 0.0 | 0.00 | 0.00 | 0.00 | ||
| 20260505090330 | 54 | 7 | 0.0 | 0.0 | 0.00 | 0.00 | 0.00 | ||
| 20260505085831 | 55 | 7 | 0.0 | 0.0 | 0.00 | 0.00 | 0.00 | ||
| 20260505085452 | 54 | 7 | 0.0 | 0.0 | 0.00 | 0.00 | 0.00 | ||
| 20260505085330 | 54 | 7 | 0.0 | 0.0 | 0.00 | 0.00 | 0.00 | ||
| 20260505085002 | 54 | 7 | 0.0 | 0.0 | 0.00 | 0.00 | 0.00 | ||
| 20260505084831 | 54 | 7 | 0.0 | 0.0 | 0.00 | 0.00 | 0.00 | ||
| 20260505083830 | 54 | 7 | 0.0 | 0.0 | 0.00 | 0.00 | 0.00 | ||
| 20260505083329 | 54 | 7 | 0.0 | 0.0 | 0.00 | 0.00 | 0.00 | ||
| 20260505082901 | 55 | 7 | 0.0 | 0.0 | 0.00 | 0.00 | 0.00 | ||
| 20260505082830 | 55 | 7 | 0.0 | 0.0 | 0.00 | 0.00 | 0.00 | ||
| 20260505082329 | 55 | 7 | 0.0 | 0.0 | 0.00 | 0.00 | 0.00 | ||
| 20260505081922 | 55 | 7 | 0.0 | 0.0 | 0.00 | 0.00 | 0.00 | ||
| 20260505081830 | 55 | 7 | 0.0 | 0.0 | 0.00 | 0.00 | 0.00 | ||
| 20260505081518 | 54 | 7 | 0.0 | 0.0 | 0.00 | 0.00 | 0.00 | ||
| 20260505081328 | 54 | 7 | 0.0 | 0.0 | 0.00 | 0.00 | 0.00 | ||
| 20260505080830 | 54 | 7 | 0.0 | 0.0 | 0.00 | 0.00 | 0.00 | ||
| 20260505080328 | 55 | 7 | 0.0 | 0.0 | 0.00 | 0.00 | 0.00 | ||
| 20260505075901 | 55 | 7 | 0.0 | 0.0 | 0.00 | 0.00 | 0.00 | ||
| 20260505075829 | 55 | 7 | 0.0 | 0.0 | 0.00 | 0.00 | 0.00 | ||
| 20260505075532 | 55 | 7 | 0.0 | 0.0 | 0.00 | 0.00 | 0.00 | ||
| 20260505075328 | 55 | 7 | 0.0 | 0.0 | 0.00 | 0.00 | 0.00 | ||
| 20260505074829 | 55 | 7 | 0.0 | 0.0 | 0.00 | 0.00 | 0.00 | ||
| 20260505074005 | 55 | 7 | 0.0 | 0.0 | 0.00 | 0.00 | 0.00 | ||
| 20260505073828 | 55 | 7 | 0.0 | 0.0 | 0.00 | 0.00 | 0.00 | ||
| 20260505073447 | 55 | 7 | 0.0 | 0.0 | 0.00 | 0.00 | 0.00 | ||
| 20260505073327 | 55 | 7 | 0.0 | 0.0 | 0.00 | 0.00 | 0.00 | ||
| 20260505072901 | 54 | 7 | 0.0 | 0.0 | 0.00 | 0.00 | 0.00 | ||
| 20260505072828 | 54 | 7 | 0.0 | 0.0 | 0.00 | 0.00 | 0.00 | ||
| 20260505071827 | 55 | 7 | 0.0 | 0.0 | 0.00 | 0.00 | 0.00 | ||
| 20260505070827 | 54 | 7 | 0.0 | 0.0 | 0.00 | 0.00 | 0.00 | ||
| 20260505070450 | 55 | 7 | 0.0 | 0.0 | 0.00 | 0.00 | 0.00 | ||
| 20260505070325 | 55 | 7 | 0.0 | 0.0 | 0.00 | 0.00 | 0.00 | ||
| 20260505065826 | 55 | 7 | 0.0 | 0.0 | 0.00 | 0.00 | 0.00 | ||
| 20260505065402 | 55 | 7 | 0.0 | 0.0 | 0.00 | 0.00 | 0.00 | ||
| 20260505065325 | 55 | 7 | 0.0 | 0.0 | 0.00 | 0.00 | 0.00 | ||
| 20260505064826 | 55 | 7 | 0.0 | 0.0 | 0.00 | 0.00 | 0.00 | ||
| 20260505063934 | 55 | 7 | 0.0 | 0.0 | 0.00 | 0.00 | 0.00 | ||
| 20260505063825 | 55 | 7 | 0.0 | 0.0 | 0.00 | 0.00 | 0.00 | ||
| 20260505063323 | 55 | 7 | 0.0 | 0.0 | 0.00 | 0.00 | 0.00 | ||
| 20260505062901 | 55 | 7 | 0.0 | 0.0 | 0.00 | 0.00 | 0.00 | ||
| 20260505062824 | 55 | 7 | 0.0 | 0.0 | 0.00 | 0.00 | 0.00 | ||
| 20260505062320 | 55 | 7 | 0.0 | 0.0 | 0.00 | 0.00 | 0.00 | ||
| 20260505062005 | 55 | 7 | 0.0 | 0.0 | 0.00 | 0.00 | 0.00 | ||
| 20260505061821 | 55 | 7 | 0.0 | 0.0 | 0.00 | 0.00 | 0.00 | ||
| 20260505060819 | 55 | 7 | 0.0 | 0.0 | 0.00 | 0.00 | 0.00 | ||
| 20260505060317 | 55 | 7 | 0.0 | 0.0 | 0.00 | 0.00 | 0.00 | ||
| 20260505055819 | 55 | 7 | 0.0 | 0.0 | 0.00 | 0.00 | 0.00 | ||
| 20260505055417 | 55 | 7 | 0.0 | 0.0 | 0.00 | 0.00 | 0.00 | ||
| 20260505055317 | 55 | 7 | 0.0 | 0.0 | 0.00 | 0.00 | 0.00 | ||
| 20260505054818 | 56 | 7 | 0.0 | 0.0 | 0.00 | 0.00 | 0.00 |